Private Wetterstation Wechselburg
Wetterdaten: Freitag, 16.12.2011
Datum Zeit Temp. +2m Bodentemp. Temp.+5cm Temp. Wind Windchill X Diff Temp. Feuchte +2m Feuchte +5cm Sonnenschein Luftdruck Regen Wind Richtung Richtung Sonnenschein UV Taupunkt Windchill Windben
16.12.2011 00:00 4,0 C 9,7 C 3,7 C 3,2 C 1,7 C 0,0 C 80 % 83 % 0 % 1008,6 hPa 0,0 l/m 5,6 km/h (1 Bft) SW 225 0 min 0,0 UV-I 0,9 C 0,1 C 13,7 km/h (3 Bft)
16.12.2011 00:10 4,1 C 9,7 C 3,7 C 3,2 C 1,4 C 0,0 C 80 % 83 % 0 % 1008,6 hPa 0,0 l/m 6,6 km/h (2 Bft) S 180 0 min 0,0 UV-I 1,0 C -0,6 C 14,2 km/h (3 Bft)
16.12.2011 00:15 4,0 C 9,7 C 3,9 C 3,3 C 1,9 C 0,0 C 80 % 83 % 0 % 1008,6 hPa 0,0 l/m 6,3 km/h (2 Bft) S-SO 157 0 min 0,0 UV-I 0,9 C 0,0 C 9,0 km/h (2 Bft)
16.12.2011 00:20 4,1 C 9,7 C 3,8 C 3,5 C 1,5 C 0,0 C 80 % 83 % 0 % 1008,0 hPa 0,0 l/m 8,0 km/h (2 Bft) S-SW 202 0 min 0,0 UV-I 1,0 C -1,0 C 17,2 km/h (3 Bft)
16.12.2011 00:25 4,1 C 9,7 C 3,9 C 3,4 C 1,3 C 0,0 C 80 % 83 % 0 % 1008,0 hPa 0,0 l/m 8,9 km/h (2 Bft) SW 225 0 min 0,0 UV-I 1,0 C -1,5 C 11,7 km/h (2 Bft)
16.12.2011 00:30 4,1 C 9,7 C 3,9 C 3,4 C 1,2 C 0,0 C 80 % 83 % 0 % 1008,0 hPa 0,0 l/m 8,5 km/h (2 Bft) S-SW 202 0 min 0,0 UV-I 1,0 C -1,5 C 17,2 km/h (3 Bft)
16.12.2011 00:35 4,0 C 9,7 C 3,8 C 3,1 C 1,4 C 0,0 C 80 % 83 % 0 % 1008,0 hPa 0,0 l/m 6,9 km/h (2 Bft) O-NO 67 0 min 0,0 UV-I 0,9 C -0,7 C 10,6 km/h (2 Bft)
16.12.2011 00:40 4,0 C 9,7 C 3,8 C 3,3 C 1,1 C 0,0 C 80 % 83 % 0 % 1008,0 hPa 0,0 l/m 7,7 km/h (2 Bft) S 180 0 min 0,0 UV-I 0,9 C -1,4 C 12,4 km/h (3 Bft)
16.12.2011 00:45 4,0 C 9,7 C 3,9 C 3,1 C 1,3 C 0,0 C 80 % 83 % 0 % 1008,0 hPa 0,0 l/m 7,4 km/h (2 Bft) S 180 0 min 0,0 UV-I 0,9 C -1,0 C 9,2 km/h (2 Bft)
16.12.2011 00:50 4,1 C 9,7 C 3,9 C 3,2 C 1,4 C 0,0 C 80 % 83 % 0 % 1008,0 hPa 0,0 l/m 6,9 km/h (2 Bft) S 180 0 min 0,0 UV-I 1,0 C -0,7 C 8,5 km/h (2 Bft)
16.12.2011 00:55 4,1 C 9,7 C 3,9 C 3,3 C 1,8 C 0,0 C 80 % 83 % 0 % 1008,0 hPa 0,0 l/m 6,8 km/h (2 Bft) S-SW 202 0 min 0,0 UV-I 1,0 C -0,2 C 9,5 km/h (2 Bft)
16.12.2011 01:00 4,3 C 9,7 C 3,9 C 3,5 C 2,0 C 0,0 C 80 % 83 % 0 % 1007,6 hPa 0,0 l/m 6,9 km/h (2 Bft) S-SO 157 0 min 0,0 UV-I 1,2 C -0,0 C 6,0 km/h (2 Bft)
16.12.2011 01:07 4,3 C 9,7 C 3,9 C 3,6 C 2,2 C 0,0 C 80 % 83 % 0 % 1007,6 hPa 0,0 l/m 6,3 km/h (2 Bft) N 0 0 min 0,0 UV-I 1,2 C 0,4 C 4,5 km/h (1 Bft)
16.12.2011 01:10 4,1 C 9,7 C 3,9 C 3,4 C 2,0 C 0,0 C 80 % 83 % 0 % 1007,6 hPa 0,0 l/m 6,3 km/h (2 Bft) W-SW 247 0 min 0,0 UV-I 1,0 C 0,2 C 6,9 km/h (2 Bft)
16.12.2011 01:15 4,1 C 9,7 C 3,9 C 3,3 C 1,8 C 0,0 C 80 % 84 % 0 % 1007,6 hPa 0,0 l/m 6,8 km/h (2 Bft) SW 225 0 min 0,0 UV-I 1,0 C -0,2 C 8,2 km/h (2 Bft)
16.12.2011 01:20 4,3 C 9,7 C 3,9 C 3,5 C 1,9 C 0,0 C 80 % 83 % 0 % 1007,2 hPa 0,0 l/m 6,3 km/h (2 Bft) W-SW 247 0 min 0,0 UV-I 1,2 C 0,0 C 6,8 km/h (2 Bft)
16.12.2011 01:25 4,3 C 9,7 C 4,1 C 3,5 C 1,8 C 0,0 C 80 % 83 % 0 % 1007,2 hPa 0,0 l/m 6,9 km/h (2 Bft) NO 45 0 min 0,0 UV-I 1,2 C -0,3 C 6,6 km/h (2 Bft)
16.12.2011 01:30 4,2 C 9,7 C 4,0 C 3,4 C 1,8 C 0,0 C 80 % 83 % 0 % 1007,2 hPa 0,0 l/m 7,4 km/h (2 Bft) S-SO 157 0 min 0,0 UV-I 1,1 C -0,4 C 11,4 km/h (2 Bft)
16.12.2011 01:35 4,3 C 9,7 C 4,0 C 3,7 C 2,4 C 0,0 C 80 % 83 % 0 % 1007,2 hPa 0,0 l/m 5,6 km/h (1 Bft) W-SW 247 0 min 0,0 UV-I 1,2 C 0,9 C 6,4 km/h (2 Bft)
16.12.2011 01:40 4,3 C 9,7 C 4,0 C 3,7 C 2,4 C 0,0 C 80 % 83 % 0 % 1006,7 hPa 0,0 l/m 5,6 km/h (1 Bft) S 180 0 min 0,0 UV-I 1,2 C 0,9 C 8,5 km/h (2 Bft)
16.12.2011 01:45 4,3 C 9,7 C 4,0 C 3,7 C 2,5 C 0,0 C 80 % 83 % 0 % 1006,7 hPa 0,0 l/m 5,3 km/h (1 Bft) S 180 0 min 0,0 UV-I 1,2 C 1,1 C 8,7 km/h (2 Bft)
16.12.2011 01:50 4,2 C 9,7 C 4,0 C 3,7 C 2,6 C 0,0 C 80 % 83 % 0 % 1006,7 hPa 0,0 l/m 5,1 km/h (1 Bft) S 180 0 min 0,0 UV-I 1,1 C 1,3 C 3,4 km/h (1 Bft)
16.12.2011 01:55 4,3 C 9,7 C 4,1 C 3,6 C 2,1 C 0,0 C 80 % 83 % 0 % 1006,7 hPa 0,0 l/m 6,6 km/h (2 Bft) S 180 0 min 0,0 UV-I 1,2 C 0,2 C 10,1 km/h (2 Bft)
16.12.2011 02:00 4,5 C 9,7 C 4,3 C 3,7 C 2,0 C 0,0 C 80 % 83 % 0 % 1006,2 hPa 0,0 l/m 6,9 km/h (2 Bft) S-SW 202 0 min 0,0 UV-I 1,4 C -0,0 C 8,5 km/h (2 Bft)
16.12.2011 02:10 4,7 C 9,7 C 4,4 C 4,0 C 2,7 C 0,0 C 79 % 82 % 0 % 1006,2 hPa 0,0 l/m 7,2 km/h (2 Bft) S-SW 202 0 min 0,0 UV-I 1,4 C 0,7 C 10,5 km/h (2 Bft)
16.12.2011 02:15 4,8 C 9,7 C 4,5 C 4,3 C 2,6 C 0,0 C 78 % 82 % 0 % 1006,2 hPa 0,0 l/m 8,2 km/h (2 Bft) S-SO 157 0 min 0,0 UV-I 1,3 C 0,3 C 9,5 km/h (2 Bft)
16.12.2011 02:20 4,8 C 9,7 C 4,6 C 4,1 C 2,6 C 0,0 C 78 % 81 % 0 % 1005,8 hPa 0,0 l/m 7,7 km/h (2 Bft) S 180 0 min 0,0 UV-I 1,3 C 0,4 C 19,5 km/h (3 Bft)
16.12.2011 02:25 4,8 C 9,7 C 4,5 C 4,1 C 2,6 C 0,0 C 78 % 81 % 0 % 1005,8 hPa 0,0 l/m 7,2 km/h (2 Bft) S-SO 157 0 min 0,0 UV-I 1,3 C 0,6 C 12,7 km/h (3 Bft)
16.12.2011 02:30 4,8 C 9,7 C 4,5 C 4,1 C 2,6 C 0,0 C 78 % 81 % 0 % 1005,8 hPa 0,0 l/m 7,2 km/h (2 Bft) NW 315 0 min 0,0 UV-I 1,3 C 0,6 C 9,5 km/h (2 Bft)
16.12.2011 02:35 4,8 C 9,7 C 4,5 C 4,0 C 2,3 C 0,0 C 78 % 81 % 0 % 1005,8 hPa 0,0 l/m 7,6 km/h (2 Bft) S-SW 202 0 min 0,0 UV-I 1,3 C 0,1 C 6,4 km/h (2 Bft)
16.12.2011 02:40 4,7 C 9,7 C 4,4 C 4,0 C 2,6 C 0,0 C 78 % 81 % 0 % 1005,4 hPa 0,0 l/m 6,3 km/h (2 Bft) S 180 0 min 0,0 UV-I 1,2 C 0,9 C 8,5 km/h (2 Bft)
16.12.2011 02:45 4,7 C 9,7 C 4,4 C 4,1 C 2,8 C 0,0 C 78 % 82 % 0 % 1005,4 hPa 0,0 l/m 5,1 km/h (1 Bft) S-SW 202 0 min 0,0 UV-I 1,2 C 1,5 C 5,6 km/h (1 Bft)
16.12.2011 02:50 4,7 C 9,7 C 4,3 C 4,0 C 2,5 C 0,0 C 78 % 81 % 0 % 1005,4 hPa 0,0 l/m 5,5 km/h (1 Bft) SW 225 0 min 0,0 UV-I 1,2 C 1,0 C 6,8 km/h (2 Bft)
16.12.2011 02:55 4,7 C 9,7 C 4,3 C 4,0 C 2,6 C 0,0 C 78 % 82 % 0 % 1005,4 hPa 0,0 l/m 5,1 km/h (1 Bft) S 180 0 min 0,0 UV-I 1,2 C 1,3 C 5,3 km/h (1 Bft)
16.12.2011 03:00 4,7 C 9,7 C 4,3 C 3,9 C 2,4 C 0,0 C 78 % 82 % 0 % 1004,8 hPa 0,0 l/m 5,5 km/h (1 Bft) S 180 0 min 0,0 UV-I 1,2 C 0,9 C 6,9 km/h (2 Bft)
16.12.2011 03:10 4,7 C 9,6 C 4,3 C 3,8 C 2,0 C 0,0 C 78 % 81 % 0 % 1004,8 hPa 0,0 l/m 6,9 km/h (2 Bft) S 180 0 min 0,0 UV-I 1,2 C -0,0 C 7,6 km/h (2 Bft)
16.12.2011 03:15 4,7 C 9,6 C 4,3 C 3,9 C 2,2 C 0,0 C 77 % 81 % 0 % 1004,8 hPa 0,0 l/m 6,3 km/h (2 Bft) W-SW 247 0 min 0,0 UV-I 1,0 C 0,4 C 6,9 km/h (2 Bft)
16.12.2011 03:20 4,6 C 9,6 C 4,3 C 3,9 C 2,5 C 0,0 C 77 % 81 % 0 % 1005,0 hPa 0,0 l/m 5,5 km/h (1 Bft) W-SW 247 0 min 0,0 UV-I 0,9 C 1,0 C 6,4 km/h (2 Bft)
16.12.2011 03:25 4,5 C 9,7 C 4,3 C 3,9 C 2,7 C 0,0 C 78 % 81 % 0 % 1005,0 hPa 0,0 l/m 5,0 km/h (1 Bft) S 180 0 min 0,0 UV-I 1,0 C 1,5 C 6,9 km/h (2 Bft)
16.12.2011 03:30 4,5 C 9,6 C 4,3 C 3,9 C 2,6 C 0,0 C 78 % 81 % 0 % 1005,0 hPa 0,0 l/m 5,1 km/h (1 Bft) SW 225 0 min 0,0 UV-I 1,0 C 1,3 C 4,5 km/h (1 Bft)
16.12.2011 03:35 4,5 C 9,6 C 4,3 C 3,9 C 2,6 C 0,0 C 78 % 81 % 0 % 1005,0 hPa 0,0 l/m 5,1 km/h (1 Bft) S 180 0 min 0,0 UV-I 1,0 C 1,3 C 6,3 km/h (2 Bft)
16.12.2011 03:40 4,5 C 9,6 C 4,3 C 3,9 C 2,6 C 0,0 C 78 % 81 % 0 % 1004,1 hPa 0,0 l/m 5,3 km/h (1 Bft) W 270 0 min 0,0 UV-I 1,0 C 1,2 C 5,5 km/h (1 Bft)
16.12.2011 03:45 4,4 C 9,6 C 4,2 C 3,7 C 2,3 C 0,0 C 78 % 81 % 0 % 1004,1 hPa 0,0 l/m 6,1 km/h (2 Bft) S-SO 157 0 min 0,0 UV-I 0,9 C 0,6 C 5,3 km/h (1 Bft)
16.12.2011 03:50 4,5 C 9,6 C 4,1 C 3,9 C 2,7 C 0,0 C 78 % 81 % 0 % 1004,1 hPa 0,0 l/m 4,8 km/h (1 Bft) S 180 0 min 0,0 UV-I 1,0 C 1,6 C 4,8 km/h (1 Bft)
16.12.2011 03:55 4,4 C 9,6 C 4,0 C 4,0 C 3,1 C 0,0 C 78 % 81 % 0 % 1004,1 hPa 0,0 l/m 3,7 km/h (1 Bft) S 180 0 min 0,0 UV-I 0,9 C 3,1 C 3,1 km/h (1 Bft)
16.12.2011 04:00 4,3 C 9,6 C 3,9 C 3,9 C 3,0 C 0,0 C 78 % 81 % 0 % 1003,4 hPa 0,0 l/m 3,7 km/h (1 Bft) S 180 0 min 0,0 UV-I 0,8 C 3,0 C 4,3 km/h (1 Bft)
16.12.2011 04:04 4,3 C 9,6 C 3,9 C 3,9 C 3,2 C 0,0 C 78 % 82 % 0 % 1003,4 hPa 0,0 l/m 2,9 km/h (1 Bft) S 180 0 min 0,0 UV-I 0,8 C 3,2 C 2,7 km/h (1 Bft)
16.12.2011 04:09 4,1 C 9,6 C 3,7 C 3,8 C 3,2 C 0,0 C 78 % 82 % 0 % 1003,4 hPa 0,0 l/m 1,9 km/h (1 Bft) NO 45 0 min 0,0 UV-I 0,6 C 3,2 C 3,2 km/h (1 Bft)
16.12.2011 04:14 4,1 C 9,6 C 3,7 C 3,8 C 3,1 C 0,0 C 78 % 82 % 0 % 1003,4 hPa 0,0 l/m 1,4 km/h (1 Bft) O-SO 112 0 min 0,0 UV-I 0,6 C 3,1 C 2,3 km/h (1 Bft)
16.12.2011 04:18 4,1 C 9,6 C 3,7 C 3,8 C 3,1 C 0,0 C 78 % 82 % 0 % 1003,4 hPa 0,0 l/m 1,4 km/h (1 Bft) O-SO 112 0 min 0,0 UV-I 0,6 C 3,1 C 2,3 km/h (1 Bft)
16.12.2011 04:25 4,0 C 9,6 C 3,6 C 3,7 C 3,0 C 0,0 C 78 % 82 % 0 % 1002,8 hPa 0,0 l/m 1,0 km/h (0 Bft) NO 45 0 min 0,0 UV-I 0,5 C 3,0 C 0,0 km/h (0 Bft)
16.12.2011 04:30 4,1 C 9,6 C 3,6 C 3,7 C 3,0 C 0,0 C 78 % 82 % 0 % 1002,8 hPa 0,0 l/m 1,9 km/h (1 Bft) SW 225 0 min 0,0 UV-I 0,6 C 3,0 C 6,1 km/h (2 Bft)
16.12.2011 04:35 4,0 C 9,6 C 3,6 C 3,7 C 3,0 C 0,0 C 78 % 82 % 0 % 1002,8 hPa 0,0 l/m 3,1 km/h (1 Bft) S-SO 157 0 min 0,0 UV-I 0,5 C 3,0 C 2,9 km/h (1 Bft)
16.12.2011 04:40 4,0 C 9,6 C 3,6 C 3,7 C 3,1 C 0,0 C 78 % 82 % 0 % 1002,1 hPa 0,0 l/m 2,9 km/h (1 Bft) W-SW 247 0 min 0,0 UV-I 0,5 C 3,1 C 0,0 km/h (0 Bft)
16.12.2011 04:45 4,1 C 9,6 C 3,6 C 3,8 C 3,1 C 0,0 C 78 % 82 % 0 % 1002,1 hPa 0,0 l/m 1,6 km/h (1 Bft) NO 45 0 min 0,0 UV-I 0,6 C 3,1 C 1,8 km/h (1 Bft)
16.12.2011 04:50 4,0 C 9,6 C 3,6 C 3,7 C 3,1 C 0,0 C 78 % 82 % 0 % 1002,1 hPa 0,0 l/m 1,1 km/h (1 Bft) SW 225 0 min 0,0 UV-I 0,5 C 3,1 C 3,7 km/h (1 Bft)
16.12.2011 04:55 4,0 C 9,6 C 3,6 C 3,7 C 3,1 C 0,0 C 78 % 82 % 0 % 1002,1 hPa 0,0 l/m 1,6 km/h (1 Bft) S-SW 202 0 min 0,0 UV-I 0,5 C 3,1 C 5,0 km/h (1 Bft)
16.12.2011 05:00 4,0 C 9,6 C 3,7 C 3,7 C 3,2 C 0,0 C 78 % 82 % 0 % 1001,2 hPa 0,0 l/m 2,7 km/h (1 Bft) S 180 0 min 0,0 UV-I 0,5 C 3,2 C 3,1 km/h (1 Bft)
16.12.2011 05:10 3,9 C 9,6 C 3,7 C 3,7 C 3,2 C 0,0 C 78 % 82 % 0 % 1001,2 hPa 0,0 l/m 1,1 km/h (1 Bft) W-SW 247 0 min 0,0 UV-I 0,4 C 3,2 C 2,1 km/h (1 Bft)
16.12.2011 05:15 3,9 C 9,6 C 3,6 C 3,7 C 3,2 C 0,0 C 78 % 82 % 0 % 1001,2 hPa 0,0 l/m 1,1 km/h (1 Bft) S-SW 202 0 min 0,0 UV-I 0,4 C 3,2 C 1,9 km/h (1 Bft)
16.12.2011 05:20 4,0 C 9,6 C 3,7 C 3,8 C 3,3 C 0,0 C 78 % 82 % 0 % 1000,9 hPa 0,0 l/m 1,3 km/h (1 Bft) O-SO 112 0 min 0,0 UV-I 0,5 C 3,3 C 0,0 km/h (0 Bft)
16.12.2011 05:25 4,0 C 9,6 C 3,6 C 3,8 C 3,3 C 0,0 C 78 % 82 % 0 % 1000,9 hPa 0,0 l/m 0,8 km/h (0 Bft) SO 135 0 min 0,0 UV-I 0,5 C 3,3 C 0,0 km/h (0 Bft)
16.12.2011 05:30 4,0 C 9,6 C 3,6 C 3,8 C 3,3 C 0,0 C 78 % 82 % 0 % 1000,9 hPa 0,0 l/m 0,3 km/h (0 Bft) O-SO 112 0 min 0,0 UV-I 0,5 C 3,3 C 1,8 km/h (1 Bft)
16.12.2011 05:35 4,0 C 9,6 C 3,7 C 3,8 C 3,3 C 0,0 C 78 % 82 % 0 % 1000,9 hPa 0,0 l/m 0,5 km/h (0 Bft) O-SO 112 0 min 0,0 UV-I 0,5 C 3,3 C 2,1 km/h (1 Bft)
16.12.2011 05:40 4,0 C 9,6 C 3,7 C 3,8 C 3,4 C 0,0 C 78 % 81 % 0 % 999,9 hPa 0,0 l/m 0,5 km/h (0 Bft) O-SO 112 0 min 0,0 UV-I 0,5 C 3,4 C 0,0 km/h (0 Bft)
16.12.2011 05:45 4,0 C 9,6 C 3,9 C 3,8 C 3,4 C 0,0 C 78 % 81 % 0 % 999,9 hPa 0,0 l/m 0,8 km/h (0 Bft) O 90 0 min 0,0 UV-I 0,5 C 3,4 C 2,6 km/h (1 Bft)
16.12.2011 05:50 4,0 C 9,6 C 3,9 C 3,8 C 3,4 C 0,0 C 78 % 81 % 0 % 999,9 hPa 0,0 l/m 1,0 km/h (0 Bft) O-SO 112 0 min 0,0 UV-I 0,5 C 3,4 C 2,7 km/h (1 Bft)
16.12.2011 05:55 4,0 C 9,6 C 3,9 C 3,8 C 3,4 C 0,0 C 77 % 81 % 0 % 999,9 hPa 0,0 l/m 0,8 km/h (0 Bft) O-SO 112 0 min 0,0 UV-I 0,3 C 3,4 C 2,3 km/h (1 Bft)
16.12.2011 06:00 4,0 C 9,6 C 3,8 C 3,8 C 3,4 C 0,0 C 77 % 81 % 0 % 999,1 hPa 0,0 l/m 0,6 km/h (0 Bft) O-SO 112 0 min 0,0 UV-I 0,3 C 3,4 C 1,8 km/h (1 Bft)
16.12.2011 06:10 4,0 C 9,5 C 3,9 C 3,8 C 3,4 C 0,0 C 77 % 81 % 0 % 999,1 hPa 0,0 l/m 1,1 km/h (1 Bft) O 90 0 min 0,0 UV-I 0,3 C 3,4 C 2,1 km/h (1 Bft)
16.12.2011 06:15 4,1 C 9,6 C 3,9 C 3,9 C 3,6 C 0,0 C 77 % 81 % 0 % 999,1 hPa 0,0 l/m 1,6 km/h (1 Bft) O 90 0 min 0,0 UV-I 0,4 C 3,6 C 2,3 km/h (1 Bft)
16.12.2011 06:20 4,1 C 9,6 C 3,9 C 3,9 C 3,6 C 0,0 C 77 % 81 % 0 % 998,0 hPa 0,0 l/m 1,6 km/h (1 Bft) O-SO 112 0 min 0,0 UV-I 0,4 C 3,6 C 0,0 km/h (0 Bft)
16.12.2011 06:25 4,0 C 9,6 C 3,9 C 3,8 C 3,5 C 0,0 C 77 % 81 % 0 % 998,0 hPa 0,0 l/m 0,8 km/h (0 Bft) O-NO 67 0 min 0,0 UV-I 0,3 C 3,5 C 1,9 km/h (1 Bft)
16.12.2011 06:30 4,1 C 9,6 C 3,9 C 3,9 C 3,5 C 0,0 C 77 % 81 % 0 % 998,0 hPa 0,0 l/m 0,6 km/h (0 Bft) O-NO 67 0 min 0,0 UV-I 0,4 C 3,5 C 3,4 km/h (1 Bft)
16.12.2011 06:35 4,1 C 9,6 C 3,9 C 3,9 C 3,5 C 0,0 C 78 % 81 % 0 % 998,0 hPa 0,0 l/m 1,1 km/h (1 Bft) O-SO 112 0 min 0,0 UV-I 0,6 C 3,5 C 1,6 km/h (1 Bft)
16.12.2011 06:40 4,0 C 9,6 C 3,9 C 3,8 C 3,5 C 0,0 C 78 % 81 % 0 % 997,4 hPa 0,0 l/m 1,6 km/h (1 Bft) SO 135 0 min 0,0 UV-I 0,5 C 3,5 C 1,9 km/h (1 Bft)
16.12.2011 06:45 4,1 C 9,6 C 4,0 C 4,0 C 3,7 C 0,0 C 78 % 81 % 0 % 997,4 hPa 0,0 l/m 1,8 km/h (1 Bft) O-SO 112 0 min 0,0 UV-I 0,6 C 3,7 C 1,6 km/h (1 Bft)
16.12.2011 06:50 4,1 C 9,5 C 4,1 C 4,0 C 3,8 C 0,0 C 77 % 81 % 0 % 997,4 hPa 0,0 l/m 1,6 km/h (1 Bft) W 270 0 min 0,0 UV-I 0,4 C 3,8 C 2,1 km/h (1 Bft)
16.12.2011 06:55 4,2 C 9,5 C 4,1 C 4,1 C 3,9 C 0,0 C 77 % 80 % 0 % 997,4 hPa 0,0 l/m 1,3 km/h (1 Bft) O-NO 67 0 min 0,0 UV-I 0,5 C 3,9 C 0,0 km/h (0 Bft)
16.12.2011 07:00 4,3 C 9,5 C 4,1 C 4,2 C 4,0 C 0,0 C 77 % 80 % 0 % 996,6 hPa 0,0 l/m 1,1 km/h (1 Bft) O 90 0 min 0,0 UV-I 0,6 C 4,0 C 0,0 km/h (0 Bft)
16.12.2011 07:10 4,3 C 9,6 C 4,1 C 4,2 C 4,1 C 0,0 C 77 % 80 % 0 % 996,6 hPa 0,0 l/m 0,8 km/h (0 Bft) O 90 0 min 0,0 UV-I 0,6 C 4,1 C 2,1 km/h (1 Bft)
16.12.2011 07:15 4,3 C 9,6 C 4,0 C 4,2 C 4,0 C 0,0 C 77 % 81 % 0 % 996,6 hPa 0,0 l/m 1,4 km/h (1 Bft) O-SO 112 0 min 0,0 UV-I 0,6 C 4,0 C 2,3 km/h (1 Bft)
16.12.2011 07:20 4,3 C 9,6 C 4,0 C 4,2 C 3,9 C 0,0 C 78 % 81 % 0 % 995,8 hPa 0,0 l/m 1,9 km/h (1 Bft) O-NO 67 0 min 0,0 UV-I 0,8 C 3,9 C 1,9 km/h (1 Bft)
16.12.2011 07:25 4,2 C 9,6 C 4,1 C 4,1 C 3,8 C 0,0 C 78 % 81 % 0 % 995,8 hPa 0,0 l/m 1,8 km/h (1 Bft) O-NO 67 0 min 0,0 UV-I 0,7 C 3,8 C 3,9 km/h (1 Bft)
16.12.2011 07:30 4,2 C 9,6 C 4,1 C 4,1 C 3,9 C 0,0 C 78 % 81 % 0 % 995,8 hPa 0,0 l/m 1,6 km/h (1 Bft) O-SO 112 0 min 0,0 UV-I 0,7 C 3,9 C 3,4 km/h (1 Bft)
16.12.2011 07:35 4,2 C 9,6 C 4,2 C 4,1 C 4,0 C 0,0 C 78 % 81 % 0 % 995,8 hPa 0,0 l/m 1,6 km/h (1 Bft) O-SO 112 0 min 0,0 UV-I 0,7 C 4,0 C 2,6 km/h (1 Bft)
16.12.2011 07:40 4,3 C 9,6 C 4,3 C 4,2 C 4,1 C 0,0 C 78 % 80 % 0 % 995,1 hPa 0,0 l/m 1,8 km/h (1 Bft) O-SO 112 0 min 0,0 UV-I 0,8 C 4,1 C 3,1 km/h (1 Bft)
16.12.2011 07:45 4,3 C 9,6 C 4,3 C 4,3 C 4,2 C 0,0 C 77 % 80 % 0 % 995,1 hPa 0,0 l/m 2,3 km/h (1 Bft) O-NO 67 0 min 0,0 UV-I 0,6 C 4,2 C 3,2 km/h (1 Bft)
16.12.2011 07:50 4,4 C 9,6 C 4,3 C 4,4 C 4,3 C 0,0 C 77 % 80 % 0 % 995,1 hPa 0,0 l/m 2,1 km/h (1 Bft) O-NO 67 0 min 0,0 UV-I 0,7 C 4,3 C 2,3 km/h (1 Bft)
16.12.2011 07:55 4,4 C 9,5 C 4,4 C 4,4 C 4,4 C 0,0 C 77 % 80 % 0 % 995,1 hPa 0,0 l/m 1,8 km/h (1 Bft) SO 135 0 min 0,0 UV-I 0,7 C 4,4 C 2,3 km/h (1 Bft)
16.12.2011 08:00 4,4 C 9,5 C 4,4 C 4,4 C 4,4 C 0,0 C 77 % 80 % 0 % 993,9 hPa 0,0 l/m 1,9 km/h (1 Bft) O-NO 67 0 min 0,0 UV-I 0,7 C 4,4 C 2,1 km/h (1 Bft)
16.12.2011 08:10 4,6 C 9,5 C 4,4 C 4,6 C 4,6 C 0,0 C 77 % 80 % 0 % 993,9 hPa 0,0 l/m 1,6 km/h (1 Bft) SO 135 0 min 0,0 UV-I 0,9 C 4,6 C 3,1 km/h (1 Bft)
16.12.2011 08:15 4,7 C 9,5 C 4,5 C 4,7 C 4,6 C 0,0 C 77 % 80 % 0 % 993,9 hPa 0,0 l/m 1,8 km/h (1 Bft) S 180 0 min 0,0 UV-I 1,0 C 4,6 C 2,4 km/h (1 Bft)
16.12.2011 08:20 4,6 C 9,5 C 4,5 C 4,6 C 4,6 C 0,0 C 76 % 80 % 0 % 993,0 hPa 0,0 l/m 1,9 km/h (1 Bft) N 360 0 min 0,0 UV-I 0,7 C 4,6 C 2,7 km/h (1 Bft)
16.12.2011 08:25 4,7 C 9,5 C 4,5 C 4,7 C 4,7 C 0,0 C 76 % 79 % 0 % 993,0 hPa 0,0 l/m 1,3 km/h (1 Bft) O-SO 112 0 min 0,0 UV-I 0,8 C 4,7 C 0,0 km/h (0 Bft)
16.12.2011 08:30 4,7 C 9,5 C 4,5 C 4,7 C 4,7 C 0,0 C 76 % 79 % 0 % 993,0 hPa 0,0 l/m 1,1 km/h (1 Bft) O 90 0 min 0,0 UV-I 0,8 C 4,7 C 0,0 km/h (0 Bft)
16.12.2011 08:35 4,8 C 9,5 C 4,5 C 4,8 C 4,7 C 0,0 C 76 % 79 % 0 % 993,0 hPa 0,0 l/m 1,9 km/h (1 Bft) O-NO 67 0 min 0,0 UV-I 0,9 C 4,7 C 3,2 km/h (1 Bft)
16.12.2011 08:40 4,8 C 9,5 C 4,6 C 4,8 C 4,8 C 0,0 C 76 % 79 % 0 % 991,8 hPa 0,0 l/m 2,4 km/h (1 Bft) O-NO 67 0 min 0,0 UV-I 0,9 C 4,8 C 3,5 km/h (1 Bft)
16.12.2011 08:45 4,8 C 9,5 C 4,7 C 5,0 C 5,0 C 0,2 C 75 % 79 % 5 % 991,8 hPa 0,0 l/m 2,6 km/h (1 Bft) O-NO 67 0 min 0,0 UV-I 0,8 C 5,0 C 5,8 km/h (2 Bft)
16.12.2011 08:50 4,9 C 9,5 C 4,8 C 5,1 C 5,1 C 0,2 C 75 % 78 % 5 % 991,8 hPa 0,0 l/m 2,9 km/h (1 Bft) NO 45 0 min 0,0 UV-I 0,8 C 5,1 C 2,7 km/h (1 Bft)
16.12.2011 08:55 5,0 C 9,5 C 4,8 C 5,2 C 5,2 C 0,2 C 75 % 78 % 5 % 991,8 hPa 0,0 l/m 2,9 km/h (1 Bft) S 180 0 min 0,0 UV-I 0,9 C 5,2 C 1,8 km/h (1 Bft)
16.12.2011 09:00 5,1 C 9,6 C 4,8 C 5,1 C 5,1 C 0,0 C 75 % 78 % 0 % 990,9 hPa 0,0 l/m 2,4 km/h (1 Bft) O-SO 112 0 min 0,0 UV-I 1,0 C 5,1 C 4,8 km/h (1 Bft)
16.12.2011 09:10 5,1 C 9,6 C 4,9 C 4,9 C 4,6 C 0,0 C 76 % 79 % 0 % 990,9 hPa 0,0 l/m 3,5 km/h (1 Bft) O-SO 112 0 min 0,0 UV-I 1,2 C 4,6 C 4,3 km/h (1 Bft)
16.12.2011 09:15 5,1 C 9,6 C 4,8 C 4,9 C 4,5 C 0,0 C 76 % 80 % 0 % 990,9 hPa 0,0 l/m 3,4 km/h (1 Bft) O-NO 67 0 min 0,0 UV-I 1,2 C 4,5 C 3,9 km/h (1 Bft)
16.12.2011 09:20 5,1 C 9,6 C 4,9 C 5,0 C 4,7 C 0,0 C 76 % 80 % 0 % 989,8 hPa 0,0 l/m 2,9 km/h (1 Bft) W-NW 292 0 min 0,0 UV-I 1,2 C 4,7 C 3,2 km/h (1 Bft)
16.12.2011 09:27 5,0 C 9,6 C 4,8 C 4,8 C 4,4 C 0,0 C 77 % 80 % 0 % 989,8 hPa 0,0 l/m 3,4 km/h (1 Bft) O 90 0 min 0,0 UV-I 1,3 C 4,4 C 8,0 km/h (2 Bft)
16.12.2011 09:28 5,0 C 9,6 C 4,8 C 4,8 C 4,4 C 0,0 C 77 % 80 % 0 % 989,8 hPa 0,0 l/m 3,4 km/h (1 Bft) O 90 0 min 0,0 UV-I 1,3 C 4,4 C 8,0 km/h (2 Bft)
16.12.2011 09:29 5,0 C 9,6 C 4,8 C 4,8 C 4,4 C 0,0 C 77 % 80 % 0 % 989,8 hPa 0,0 l/m 3,4 km/h (1 Bft) O 90 0 min 0,0 UV-I 1,3 C 4,4 C 8,0 km/h (2 Bft)
16.12.2011 09:30 5,0 C 9,7 C 4,9 C 4,7 C 4,0 C 0,0 C 77 % 81 % 0 % 989,8 hPa 0,0 l/m 3,7 km/h (1 Bft) O-SO 112 0 min 0,0 UV-I 1,3 C 4,0 C 2,9 km/h (1 Bft)
16.12.2011 09:31 5,0 C 9,7 C 4,9 C 4,7 C 4,0 C 0,0 C 77 % 81 % 0 % 989,8 hPa 0,0 l/m 3,7 km/h (1 Bft) O-SO 112 0 min 0,0 UV-I 1,3 C 4,0 C 2,9 km/h (1 Bft)
16.12.2011 09:34 5,0 C 9,7 C 4,9 C 4,7 C 4,0 C 0,0 C 77 % 81 % 0 % 989,8 hPa 0,0 l/m 3,7 km/h (1 Bft) O-SO 112 0 min 0,0 UV-I 1,3 C 4,0 C 2,9 km/h (1 Bft)
16.12.2011 09:45 4,8 C 9,9 C 4,7 C 4,4 C 3,6 C 0,0 C 79 % 83 % 0 % 988,7 hPa 0,0 l/m 3,7 km/h (1 Bft) S-SO 157 0 min 0,0 UV-I 1,5 C 3,6 C 5,1 km/h (1 Bft)
16.12.2011 09:46 4,8 C 9,9 C 4,7 C 4,4 C 3,6 C 0,0 C 79 % 83 % 0 % 988,7 hPa 0,0 l/m 3,7 km/h (1 Bft) S-SO 157 0 min 0,0 UV-I 1,5 C 3,6 C 5,1 km/h (1 Bft)
16.12.2011 09:47 4,8 C 9,9 C 4,7 C 4,4 C 3,6 C 0,0 C 79 % 83 % 0 % 988,7 hPa 0,0 l/m 3,7 km/h (1 Bft) S-SO 157 0 min 0,0 UV-I 1,5 C 3,6 C 5,1 km/h (1 Bft)
16.12.2011 09:48 4,8 C 9,9 C 4,7 C 4,4 C 3,6 C 0,0 C 79 % 83 % 0 % 988,7 hPa 0,0 l/m 3,7 km/h (1 Bft) S-SO 157 0 min 0,0 UV-I 1,5 C 3,6 C 5,1 km/h (1 Bft)
16.12.2011 09:50 4,8 C 9,8 C 4,6 C 4,3 C 3,4 C 0,0 C 79 % 84 % 0 % 988,7 hPa 0,0 l/m 3,7 km/h (1 Bft) SW 225 0 min 0,0 UV-I 1,5 C 3,4 C 8,0 km/h (2 Bft)
16.12.2011 09:55 4,9 C 9,9 C 4,5 C 4,4 C 3,3 C 0,0 C 80 % 86 % 0 % 988,7 hPa 0,0 l/m 3,7 km/h (1 Bft) O 90 0 min 0,0 UV-I 1,7 C 3,3 C 5,1 km/h (1 Bft)
16.12.2011 10:00 4,8 C 9,9 C 4,3 C 4,2 C 3,1 C 0,0 C 80 % 87 % 0 % 988,3 hPa 0,0 l/m 4,0 km/h (1 Bft) NO 45 0 min 0,0 UV-I 1,6 C 3,1 C 6,4 km/h (2 Bft)
16.12.2011 10:10 4,8 C 10,0 C 4,1 C 4,2 C 2,9 C 0,0 C 81 % 88 % 0 % 988,3 hPa 0,0 l/m 4,3 km/h (1 Bft) S-SO 157 0 min 0,0 UV-I 1,8 C 2,9 C 6,1 km/h (2 Bft)
16.12.2011 10:15 4,6 C 10,0 C 3,9 C 4,1 C 3,1 C 0,0 C 82 % 90 % 0 % 988,3 hPa 0,7 l/m 3,7 km/h (1 Bft) O-NO 67 0 min 0,0 UV-I 1,8 C 3,1 C 4,5 km/h (1 Bft)
16.12.2011 10:20 4,7 C 10,0 C 3,9 C 4,1 C 2,8 C 0,0 C 83 % 90 % 0 % 987,5 hPa 0,0 l/m 4,3 km/h (1 Bft) O-NO 67 0 min 0,0 UV-I 2,1 C 2,8 C 3,1 km/h (1 Bft)
16.12.2011 10:25 4,5 C 10,0 C 3,7 C 3,9 C 2,6 C 0,0 C 83 % 91 % 0 % 987,5 hPa 0,0 l/m 4,7 km/h (1 Bft) S 180 0 min 0,0 UV-I 1,9 C 1,5 C 4,3 km/h (1 Bft)
16.12.2011 10:30 4,5 C 10,0 C 3,7 C 3,9 C 2,6 C 0,0 C 83 % 91 % 0 % 987,5 hPa 0,7 l/m 4,5 km/h (1 Bft) NO 45 0 min 0,0 UV-I 1,9 C 2,6 C 7,9 km/h (2 Bft)
16.12.2011 10:35 4,3 C 9,9 C 3,6 C 3,7 C 2,4 C 0,0 C 84 % 92 % 0 % 987,5 hPa 0,7 l/m 4,3 km/h (1 Bft) SO 135 0 min 0,0 UV-I 1,8 C 2,4 C 4,5 km/h (1 Bft)
16.12.2011 10:40 4,0 C 9,9 C 3,5 C 3,4 C 2,3 C 0,0 C 84 % 92 % 0 % 986,4 hPa 0,0 l/m 4,5 km/h (1 Bft) N-NW 337 0 min 0,0 UV-I 1,5 C 2,3 C 4,8 km/h (1 Bft)
16.12.2011 10:45 4,0 C 9,9 C 3,3 C 3,4 C 2,1 C 0,0 C 85 % 92 % 0 % 986,4 hPa 0,0 l/m 4,8 km/h (1 Bft) SO 135 0 min 0,0 UV-I 1,7 C 0,9 C 5,3 km/h (1 Bft)
16.12.2011 10:50 3,9 C 9,9 C 3,3 C 3,3 C 2,2 C 0,0 C 85 % 92 % 0 % 986,4 hPa 0,7 l/m 4,3 km/h (1 Bft) O 90 0 min 0,0 UV-I 1,6 C 2,2 C 6,6 km/h (2 Bft)
16.12.2011 10:55 3,7 C 9,9 C 3,1 C 3,0 C 1,7 C 0,0 C 85 % 92 % 0 % 986,4 hPa 0,0 l/m 5,0 km/h (1 Bft) O 90 0 min 0,0 UV-I 1,4 C 0,3 C 7,6 km/h (2 Bft)
16.12.2011 10:59 3,6 C 9,9 C 3,1 C 2,9 C 1,5 C 0,0 C 86 % 92 % 0 % 985,2 hPa 0,7 l/m 5,1 km/h (1 Bft) SW 225 0 min 0,0 UV-I 1,5 C 0,1 C 7,1 km/h (2 Bft)
16.12.2011 11:03 3,6 C 9,9 C 3,1 C 2,9 C 1,5 C 0,0 C 86 % 92 % 0 % 985,2 hPa 0,0 l/m 5,1 km/h (1 Bft) SW 225 0 min 0,0 UV-I 1,5 C 0,1 C 7,1 km/h (2 Bft)
16.12.2011 11:10 3,5 C 10,0 C 2,9 C 2,8 C 1,3 C 0,0 C 87 % 93 % 0 % 985,2 hPa 0,0 l/m 5,5 km/h (1 Bft) O-NO 67 0 min 0,0 UV-I 1,5 C -0,3 C 9,3 km/h (2 Bft)
16.12.2011 11:15 3,5 C 10,0 C 2,9 C 2,8 C 0,4 C 0,0 C 87 % 93 % 0 % 985,2 hPa 0,0 l/m 8,2 km/h (2 Bft) O 90 0 min 0,0 UV-I 1,5 C -2,3 C 8,4 km/h (2 Bft)
16.12.2011 11:20 3,3 C 10,0 C 2,8 C 2,3 C 0,4 C 0,0 C 87 % 93 % 0 % 983,2 hPa 0,7 l/m 7,7 km/h (2 Bft) SW 225 0 min 0,0 UV-I 1,3 C -2,2 C 7,7 km/h (2 Bft)
16.12.2011 11:25 3,4 C 10,0 C 2,9 C 2,7 C 1,2 C 0,0 C 87 % 93 % 0 % 983,2 hPa 0,0 l/m 5,6 km/h (1 Bft) NO 45 0 min 0,0 UV-I 1,4 C -0,5 C 4,8 km/h (1 Bft)
16.12.2011 11:30 3,4 C 10,0 C 2,9 C 2,7 C 1,2 C 0,0 C 87 % 93 % 0 % 983,2 hPa 0,0 l/m 5,8 km/h (2 Bft) O-SO 112 0 min 0,0 UV-I 1,4 C -0,6 C 7,7 km/h (2 Bft)
16.12.2011 11:35 3,5 C 10,0 C 2,9 C 2,8 C 1,5 C 0,0 C 87 % 93 % 0 % 983,2 hPa 0,0 l/m 5,0 km/h (1 Bft) O-NO 67 0 min 0,0 UV-I 1,5 C 0,1 C 5,5 km/h (1 Bft)
16.12.2011 11:40 3,4 C 10,0 C 2,9 C 2,8 C 1,6 C 0,0 C 87 % 93 % 0 % 982,4 hPa 0,7 l/m 4,8 km/h (1 Bft) SO 135 0 min 0,0 UV-I 1,4 C 0,3 C 13,4 km/h (3 Bft)
16.12.2011 11:44 3,5 C 10,0 C 2,9 C 2,8 C 1,3 C 0,0 C 87 % 93 % 0 % 982,4 hPa 1,4 l/m 5,5 km/h (1 Bft) SO 135 0 min 0,0 UV-I 1,5 C -0,3 C 6,8 km/h (2 Bft)
16.12.2011 11:48 3,5 C 10,0 C 2,9 C 2,8 C 1,3 C 0,0 C 87 % 93 % 0 % 982,4 hPa 0,0 l/m 5,5 km/h (1 Bft) SO 135 0 min 0,0 UV-I 1,5 C -0,3 C 6,8 km/h (2 Bft)
16.12.2011 11:49 3,3 C 10,0 C 2,9 C 2,7 C 1,6 C 0,0 C 87 % 93 % 0 % 982,4 hPa 0,0 l/m 4,8 km/h (1 Bft) SO 135 0 min 0,0 UV-I 1,3 C 0,3 C 3,9 km/h (1 Bft)
16.12.2011 11:54 3,4 C 10,0 C 3,0 C 3,0 C 2,1 C 0,0 C 87 % 93 % 0 % 982,4 hPa 0,0 l/m 3,9 km/h (1 Bft) SO 135 0 min 0,0 UV-I 1,4 C 2,1 C 9,2 km/h (2 Bft)
16.12.2011 11:59 3,5 C 10,0 C 3,1 C 3,1 C 2,3 C 0,0 C 88 % 93 % 0 % 981,4 hPa 0,7 l/m 3,7 km/h (1 Bft) O-SO 112 0 min 0,0 UV-I 1,7 C 2,3 C 5,0 km/h (1 Bft)
16.12.2011 12:04 3,5 C 10,0 C 3,1 C 3,1 C 2,2 C 0,0 C 88 % 93 % 0 % 981,4 hPa 0,0 l/m 4,2 km/h (1 Bft) O 90 0 min 0,0 UV-I 1,7 C 2,2 C 3,5 km/h (1 Bft)
16.12.2011 12:10 3,6 C 10,0 C 3,2 C 3,2 C 2,4 C 0,0 C 88 % 93 % 0 % 981,4 hPa 0,0 l/m 4,0 km/h (1 Bft) SO 135 0 min 0,0 UV-I 1,8 C 2,4 C 2,9 km/h (1 Bft)
16.12.2011 12:15 3,9 C 9,9 C 3,5 C 3,5 C 2,7 C 0,0 C 88 % 94 % 0 % 981,4 hPa 0,7 l/m 3,9 km/h (1 Bft) SO 135 0 min 0,0 UV-I 2,1 C 2,7 C 5,5 km/h (1 Bft)
16.12.2011 12:20 4,1 C 9,8 C 3,6 C 3,7 C 2,8 C 0,0 C 88 % 94 % 0 % 980,2 hPa 0,0 l/m 4,2 km/h (1 Bft) O-SO 112 0 min 0,0 UV-I 2,3 C 2,8 C 5,5 km/h (1 Bft)
16.12.2011 12:25 4,4 C 9,8 C 3,7 C 4,0 C 3,1 C 0,0 C 88 % 94 % 0 % 980,2 hPa 0,0 l/m 4,2 km/h (1 Bft) SO 135 0 min 0,0 UV-I 2,6 C 3,1 C 2,3 km/h (1 Bft)
16.12.2011 12:30 4,5 C 9,8 C 3,9 C 4,1 C 3,2 C 0,0 C 87 % 94 % 0 % 980,2 hPa 0,0 l/m 4,0 km/h (1 Bft) O-SO 112 0 min 0,0 UV-I 2,5 C 3,2 C 4,5 km/h (1 Bft)
16.12.2011 12:35 4,7 C 9,8 C 3,9 C 4,3 C 3,5 C 0,0 C 86 % 94 % 0 % 980,2 hPa 0,0 l/m 4,0 km/h (1 Bft) O-SO 112 0 min 0,0 UV-I 2,6 C 3,5 C 3,2 km/h (1 Bft)
16.12.2011 12:40 4,9 C 9,8 C 3,9 C 4,4 C 3,4 C 0,0 C 86 % 94 % 0 % 979,2 hPa 0,0 l/m 4,3 km/h (1 Bft) S-SW 202 0 min 0,0 UV-I 2,8 C 3,4 C 11,6 km/h (2 Bft)
16.12.2011 12:45 4,9 C 9,7 C 4,0 C 4,7 C 4,2 C 0,0 C 85 % 94 % 0 % 979,2 hPa 0,0 l/m 3,5 km/h (1 Bft) N-NW 337 0 min 0,0 UV-I 2,6 C 4,2 C 2,4 km/h (1 Bft)
16.12.2011 12:50 5,1 C 9,7 C 4,1 C 4,8 C 4,1 C 0,0 C 84 % 94 % 0 % 979,2 hPa 0,0 l/m 4,3 km/h (1 Bft) S-SO 157 0 min 0,0 UV-I 2,6 C 4,1 C 5,8 km/h (2 Bft)
16.12.2011 12:55 5,3 C 9,7 C 4,3 C 4,9 C 4,2 C 0,0 C 83 % 94 % 0 % 979,2 hPa 0,0 l/m 5,0 km/h (1 Bft) O-SO 112 0 min 0,0 UV-I 2,7 C 3,2 C 11,9 km/h (2 Bft)
16.12.2011 13:00 5,5 C 9,7 C 4,4 C 5,2 C 4,5 C 0,0 C 83 % 94 % 0 % 978,3 hPa 0,0 l/m 4,5 km/h (1 Bft) O-NO 67 0 min 0,0 UV-I 2,8 C 4,5 C 5,1 km/h (1 Bft)
16.12.2011 13:15 5,9 C 9,7 C 4,8 C 5,4 C 4,4 C 0,0 C 80 % 94 % 0 % 978,3 hPa 0,0 l/m 6,3 km/h (2 Bft) SW 225 0 min 0,0 UV-I 2,7 C 2,9 C 7,9 km/h (2 Bft)
16.12.2011 13:18 5,9 C 9,7 C 4,8 C 5,4 C 4,4 C 0,0 C 80 % 94 % 0 % 978,3 hPa 0,0 l/m 6,3 km/h (2 Bft) SW 225 0 min 0,0 UV-I 2,7 C 2,9 C 7,9 km/h (2 Bft)
16.12.2011 13:20 6,0 C 9,7 C 4,9 C 5,5 C 4,6 C 0,0 C 80 % 94 % 0 % 977,3 hPa 0,0 l/m 6,4 km/h (2 Bft) W-SW 247 0 min 0,0 UV-I 2,8 C 3,1 C 6,0 km/h (2 Bft)
16.12.2011 13:25 6,1 C 9,6 C 4,9 C 5,9 C 5,4 C 0,0 C 79 % 93 % 0 % 977,3 hPa 0,0 l/m 5,0 km/h (1 Bft) NO 45 0 min 0,0 UV-I 2,7 C 4,5 C 8,9 km/h (2 Bft)
16.12.2011 13:30 6,2 C 9,6 C 5,1 C 6,0 C 5,5 C 0,0 C 79 % 93 % 0 % 977,3 hPa 0,0 l/m 5,5 km/h (1 Bft) N-NO 22 0 min 0,0 UV-I 2,8 C 4,5 C 19,8 km/h (3 Bft)
16.12.2011 13:35 6,5 C 9,6 C 5,3 C 6,0 C 5,0 C 0,0 C 78 % 93 % 0 % 977,3 hPa 0,0 l/m 7,4 km/h (2 Bft) O-NO 67 0 min 0,0 UV-I 2,9 C 3,3 C 9,7 km/h (2 Bft)
16.12.2011 13:40 6,7 C 9,6 C 5,3 C 6,3 C 5,2 C 0,0 C 78 % 93 % 0 % 976,4 hPa 0,0 l/m 7,9 km/h (2 Bft) SW 225 0 min 0,0 UV-I 3,1 C 3,4 C 26,6 km/h (4 Bft)
16.12.2011 13:45 6,8 C 9,5 C 5,6 C 6,5 C 5,3 C 0,0 C 77 % 91 % 0 % 976,4 hPa 0,0 l/m 9,0 km/h (2 Bft) S 180 0 min 0,0 UV-I 3,1 C 3,2 C 19,6 km/h (3 Bft)
16.12.2011 13:50 6,9 C 9,5 C 5,6 C 6,6 C 5,4 C 0,0 C 77 % 91 % 0 % 976,4 hPa 0,0 l/m 9,5 km/h (2 Bft) SO 135 0 min 0,0 UV-I 3,2 C 3,2 C 7,6 km/h (2 Bft)
16.12.2011 13:55 7,1 C 9,5 C 5,9 C 6,8 C 5,8 C 0,0 C 76 % 90 % 0 % 976,4 hPa 0,0 l/m 9,5 km/h (2 Bft) S-SO 157 0 min 0,0 UV-I 3,2 C 3,7 C 15,8 km/h (3 Bft)
16.12.2011 14:00 7,3 C 9,5 C 6,0 C 6,8 C 5,8 C 0,0 C 77 % 91 % 0 % 975,6 hPa 0,0 l/m 10,0 km/h (2 Bft) S-SW 202 0 min 0,0 UV-I 3,5 C 3,6 C 27,4 km/h (4 Bft)
16.12.2011 14:04 7,5 C 9,5 C 6,3 C 6,5 C 5,7 C 0,0 C 77 % 90 % 0 % 975,6 hPa 0,0 l/m 11,3 km/h (2 Bft) S-SO 157 0 min 0,0 UV-I 3,7 C 3,2 C 19,8 km/h (3 Bft)
16.12.2011 14:09 7,6 C 9,5 C 6,4 C 7,3 C 6,0 C 0,0 C 77 % 90 % 0 % 975,6 hPa 0,0 l/m 11,3 km/h (2 Bft) S 180 0 min 0,0 UV-I 3,8 C 3,6 C 13,4 km/h (3 Bft)
16.12.2011 14:14 7,7 C 9,5 C 6,7 C 7,4 C 6,4 C 0,0 C 77 % 90 % 0 % 975,6 hPa 0,0 l/m 10,8 km/h (2 Bft) O-NO 67 0 min 0,0 UV-I 3,9 C 4,2 C 11,1 km/h (2 Bft)
16.12.2011 14:18 7,7 C 9,5 C 6,7 C 7,3 C 6,4 C 0,0 C 77 % 90 % 0 % 975,6 hPa 0,0 l/m 10,8 km/h (2 Bft) O-NO 67 0 min 0,0 UV-I 3,9 C 4,2 C 11,1 km/h (2 Bft)
16.12.2011 14:25 8,0 C 9,5 C 7,0 C 7,7 C 6,7 C 0,0 C 77 % 89 % 0 % 975,1 hPa 0,0 l/m 10,8 km/h (2 Bft) S 180 0 min 0,0 UV-I 4,2 C 4,5 C 10,8 km/h (2 Bft)
16.12.2011 14:30 8,0 C 9,5 C 7,3 C 7,8 C 6,6 C 0,0 C 77 % 89 % 0 % 975,1 hPa 0,0 l/m 11,4 km/h (2 Bft) O 90 0 min 0,0 UV-I 4,2 C 4,3 C 12,2 km/h (2 Bft)
16.12.2011 14:35 8,2 C 9,5 C 7,4 C 7,9 C 6,7 C 0,0 C 77 % 88 % 0 % 975,1 hPa 0,0 l/m 12,6 km/h (3 Bft) S 180 0 min 0,0 UV-I 4,4 C 4,2 C 13,4 km/h (3 Bft)
16.12.2011 14:40 8,4 C 9,5 C 7,6 C 8,0 C 6,4 C 0,0 C 77 % 86 % 0 % 974,9 hPa 0,0 l/m 14,5 km/h (3 Bft) S-SO 157 0 min 0,0 UV-I 4,6 C 3,5 C 19,3 km/h (3 Bft)
16.12.2011 14:45 8,4 C 9,5 C 7,9 C 8,1 C 6,8 C 0,0 C 77 % 86 % 0 % 974,9 hPa 0,0 l/m 13,7 km/h (3 Bft) S-SO 157 0 min 0,0 UV-I 4,6 C 4,2 C 10,0 km/h (2 Bft)
16.12.2011 14:50 8,5 C 9,5 C 7,9 C 8,2 C 7,2 C 0,0 C 77 % 86 % 0 % 974,9 hPa 0,0 l/m 12,6 km/h (3 Bft) S 180 0 min 0,0 UV-I 4,7 C 4,8 C 31,2 km/h (5 Bft)
16.12.2011 14:55 8,7 C 9,6 C 8,1 C 8,2 C 7,2 C 0,0 C 77 % 83 % 0 % 974,9 hPa 0,0 l/m 13,4 km/h (3 Bft) S 180 0 min 0,0 UV-I 4,9 C 4,7 C 21,4 km/h (4 Bft)
16.12.2011 15:00 8,7 C 9,6 C 8,3 C 8,4 C 7,1 C 0,0 C 76 % 83 % 0 % 974,3 hPa 0,0 l/m 14,2 km/h (3 Bft) S 180 0 min 0,0 UV-I 4,7 C 4,5 C 22,0 km/h (4 Bft)
16.12.2011 15:04 8,9 C 9,6 C 8,3 C 7,8 C 7,1 C 0,0 C 76 % 82 % 0 % 974,3 hPa 0,0 l/m 14,5 km/h (3 Bft) S-SO 157 0 min 0,0 UV-I 4,9 C 4,4 C 19,2 km/h (3 Bft)
16.12.2011 15:09 8,8 C 9,6 C 8,4 C 8,2 C 7,1 C 0,0 C 77 % 83 % 0 % 974,3 hPa 0,0 l/m 14,2 km/h (3 Bft) S-SO 157 0 min 0,0 UV-I 5,0 C 4,5 C 20,1 km/h (4 Bft)
16.12.2011 15:14 8,9 C 9,6 C 8,5 C 8,5 C 7,2 C 0,0 C 77 % 82 % 0 % 974,3 hPa 0,0 l/m 13,2 km/h (3 Bft) S 180 0 min 0,0 UV-I 5,1 C 4,7 C 25,6 km/h (4 Bft)
16.12.2011 15:18 8,9 C 9,6 C 8,5 C 8,3 C 7,2 C 0,0 C 77 % 82 % 0 % 974,3 hPa 0,0 l/m 13,2 km/h (3 Bft) S 180 0 min 0,0 UV-I 5,1 C 4,7 C 25,6 km/h (4 Bft)
16.12.2011 15:25 9,1 C 9,6 C 8,6 C 8,5 C 7,2 C 0,0 C 77 % 81 % 0 % 974,4 hPa 0,0 l/m 13,4 km/h (3 Bft) S 180 0 min 0,0 UV-I 5,3 C 4,7 C 23,7 km/h (4 Bft)
16.12.2011 15:29 9,1 C 9,6 C 8,6 C 8,7 C 7,1 C 0,0 C 77 % 81 % 0 % 974,4 hPa 0,0 l/m 14,3 km/h (3 Bft) S-SW 202 0 min 0,0 UV-I 5,3 C 4,4 C 34,1 km/h (5 Bft)
16.12.2011 15:35 9,1 C 9,6 C 8,7 C 8,4 C 7,1 C 0,0 C 77 % 82 % 0 % 974,4 hPa 0,0 l/m 14,8 km/h (3 Bft) S-SW 202 0 min 0,0 UV-I 5,3 C 4,4 C 17,5 km/h (3 Bft)
16.12.2011 15:40 9,1 C 9,6 C 8,7 C 8,4 C 7,1 C 0,0 C 78 % 82 % 0 % 974,1 hPa 0,0 l/m 14,8 km/h (3 Bft) S-SO 157 0 min 0,0 UV-I 5,5 C 4,4 C 36,7 km/h (5 Bft)
16.12.2011 15:45 9,1 C 9,7 C 8,7 C 8,6 C 6,9 C 0,0 C 79 % 83 % 0 % 974,1 hPa 0,0 l/m 14,3 km/h (3 Bft) S 180 0 min 0,0 UV-I 5,7 C 4,2 C 19,3 km/h (3 Bft)
16.12.2011 15:50 8,9 C 9,7 C 8,4 C 8,4 C 6,3 C 0,0 C 79 % 84 % 0 % 974,1 hPa 0,0 l/m 15,9 km/h (3 Bft) W-SW 247 0 min 0,0 UV-I 5,5 C 3,2 C 23,0 km/h (4 Bft)
16.12.2011 15:55 8,9 C 9,7 C 8,7 C 8,3 C 6,1 C 0,0 C 79 % 84 % 0 % 974,1 hPa 0,0 l/m 16,3 km/h (3 Bft) S-SW 202 0 min 0,0 UV-I 5,5 C 2,9 C 17,7 km/h (3 Bft)
16.12.2011 16:00 8,9 C 9,7 C 8,6 C 8,3 C 6,2 C 0,0 C 80 % 84 % 0 % 974,1 hPa 0,0 l/m 15,1 km/h (3 Bft) S-SW 202 0 min 0,0 UV-I 5,6 C 3,2 C 18,5 km/h (3 Bft)
16.12.2011 16:15 8,8 C 9,8 C 8,4 C 8,2 C 5,9 C 0,0 C 81 % 85 % 0 % 974,1 hPa 0,0 l/m 17,5 km/h (3 Bft) S-SW 202 0 min 0,0 UV-I 5,7 C 2,5 C 8,9 km/h (2 Bft)
16.12.2011 16:17 8,8 C 9,8 C 8,4 C 7,5 C 5,9 C 0,0 C 81 % 85 % 0 % 974,1 hPa 0,0 l/m 17,5 km/h (3 Bft) S-SW 202 0 min 0,0 UV-I 5,7 C 2,5 C 8,9 km/h (2 Bft)
16.12.2011 16:20 8,8 C 9,8 C 8,4 C 8,1 C 5,8 C 0,0 C 82 % 86 % 0 % 973,8 hPa 0,0 l/m 16,7 km/h (3 Bft) S-SW 202 0 min 0,0 UV-I 5,9 C 2,5 C 17,5 km/h (3 Bft)
16.12.2011 16:25 8,6 C 9,8 C 8,2 C 8,0 C 6,0 C 0,0 C 83 % 86 % 0 % 973,8 hPa 0,0 l/m 13,2 km/h (3 Bft) SW 225 0 min 0,0 UV-I 5,9 C 3,3 C 18,0 km/h (3 Bft)
16.12.2011 16:30 8,7 C 9,8 C 8,3 C 8,0 C 5,9 C 0,0 C 83 % 87 % 0 % 973,8 hPa 0,0 l/m 14,0 km/h (3 Bft) S-SO 157 0 min 0,0 UV-I 6,0 C 3,0 C 12,6 km/h (3 Bft)
16.12.2011 16:35 8,7 C 9,8 C 8,2 C 8,1 C 6,1 C 0,0 C 83 % 86 % 0 % 973,8 hPa 0,0 l/m 13,7 km/h (3 Bft) O-SO 112 0 min 0,0 UV-I 6,0 C 3,3 C 12,7 km/h (3 Bft)
16.12.2011 16:40 8,7 C 9,8 C 8,3 C 8,1 C 6,3 C 0,0 C 83 % 87 % 0 % 973,8 hPa 0,0 l/m 13,4 km/h (3 Bft) SO 135 0 min 0,0 UV-I 6,0 C 3,6 C 16,3 km/h (3 Bft)
16.12.2011 16:45 8,8 C 9,8 C 8,4 C 8,3 C 6,8 C 0,0 C 83 % 87 % 0 % 973,8 hPa 0,0 l/m 11,9 km/h (2 Bft) S 180 0 min 0,0 UV-I 6,1 C 4,5 C 20,8 km/h (4 Bft)
16.12.2011 16:50 8,9 C 9,8 C 8,4 C 8,4 C 6,9 C 0,0 C 83 % 86 % 0 % 973,8 hPa 0,0 l/m 11,7 km/h (2 Bft) SW 225 0 min 0,0 UV-I 6,2 C 4,6 C 11,4 km/h (2 Bft)
16.12.2011 16:55 8,9 C 9,8 C 8,5 C 8,4 C 6,7 C 0,0 C 82 % 86 % 0 % 973,8 hPa 0,0 l/m 13,7 km/h (3 Bft) S 180 0 min 0,0 UV-I 6,0 C 4,0 C 22,5 km/h (4 Bft)
16.12.2011 17:00 9,1 C 9,8 C 8,7 C 8,6 C 6,9 C 0,0 C 81 % 85 % 0 % 973,6 hPa 0,0 l/m 14,0 km/h (3 Bft) S-SW 202 0 min 0,0 UV-I 6,0 C 4,2 C 23,3 km/h (4 Bft)
16.12.2011 17:14 9,2 C 9,9 C 8,8 C 8,1 C 7,9 C 0,0 C 80 % 84 % 0 % 973,6 hPa 0,0 l/m 9,8 km/h (2 Bft) SW 225 0 min 0,0 UV-I 5,9 C 6,2 C 12,6 km/h (3 Bft)
16.12.2011 17:18 9,2 C 9,9 C 8,8 C 8,8 C 7,9 C 0,0 C 80 % 84 % 0 % 973,6 hPa 0,0 l/m 9,8 km/h (2 Bft) SW 225 0 min 0,0 UV-I 5,9 C 6,2 C 12,6 km/h (3 Bft)
16.12.2011 17:25 9,4 C 9,9 C 9,0 C 9,1 C 7,8 C 0,0 C 79 % 83 % 0 % 973,4 hPa 0,0 l/m 10,8 km/h (2 Bft) SW 225 0 min 0,0 UV-I 5,9 C 5,9 C 13,2 km/h (3 Bft)
16.12.2011 17:30 9,5 C 9,9 C 9,1 C 9,1 C 7,9 C 0,0 C 79 % 82 % 0 % 973,4 hPa 0,0 l/m 10,6 km/h (2 Bft) NW 315 0 min 0,0 UV-I 6,0 C 6,0 C 9,8 km/h (2 Bft)
16.12.2011 17:35 9,5 C 9,9 C 9,1 C 9,2 C 8,1 C 0,0 C 78 % 82 % 0 % 973,4 hPa 0,0 l/m 9,5 km/h (2 Bft) W-SW 247 0 min 0,0 UV-I 5,9 C 6,5 C 10,6 km/h (2 Bft)
16.12.2011 17:40 9,5 C 9,9 C 9,1 C 9,2 C 7,9 C 0,0 C 78 % 81 % 0 % 974,0 hPa 0,0 l/m 10,0 km/h (2 Bft) S-SO 157 0 min 0,0 UV-I 5,9 C 6,1 C 18,5 km/h (3 Bft)
16.12.2011 17:45 9,5 C 9,9 C 9,1 C 9,1 C 7,4 C 0,0 C 76 % 80 % 0 % 974,0 hPa 0,0 l/m 13,5 km/h (3 Bft) SW 225 0 min 0,0 UV-I 5,5 C 4,9 C 22,5 km/h (4 Bft)
16.12.2011 17:50 9,5 C 9,9 C 9,1 C 8,8 C 7,4 C 0,0 C 76 % 81 % 0 % 974,0 hPa 0,0 l/m 13,8 km/h (3 Bft) W-NW 292 0 min 0,0 UV-I 5,5 C 4,9 C 13,8 km/h (3 Bft)
16.12.2011 17:55 9,4 C 10,0 C 9,1 C 9,0 C 7,6 C 0,0 C 76 % 81 % 0 % 974,0 hPa 0,0 l/m 11,7 km/h (2 Bft) S-SO 157 0 min 0,0 UV-I 5,4 C 5,5 C 24,8 km/h (4 Bft)
16.12.2011 18:00 9,4 C 10,0 C 9,0 C 9,0 C 7,7 C 0,0 C 76 % 80 % 0 % 974,2 hPa 0,0 l/m 10,9 km/h (2 Bft) W-SW 247 0 min 0,0 UV-I 5,4 C 5,7 C 7,2 km/h (2 Bft)
16.12.2011 18:15 9,5 C 10,0 C 9,0 C 8,9 C 7,7 C 0,0 C 73 % 77 % 0 % 974,2 hPa 0,0 l/m 12,2 km/h (2 Bft) W-SW 247 0 min 0,0 UV-I 4,9 C 5,5 C 23,5 km/h (4 Bft)
16.12.2011 18:17 9,5 C 10,0 C 9,0 C 8,2 C 7,7 C 0,0 C 73 % 77 % 0 % 974,2 hPa 0,0 l/m 12,2 km/h (2 Bft) W-SW 247 0 min 0,0 UV-I 4,9 C 5,5 C 23,5 km/h (4 Bft)
16.12.2011 18:20 9,5 C 10,0 C 9,1 C 9,1 C 7,8 C 0,0 C 74 % 78 % 0 % 974,8 hPa 0,0 l/m 11,1 km/h (2 Bft) O-SO 112 0 min 0,0 UV-I 5,1 C 5,8 C 19,3 km/h (3 Bft)
16.12.2011 18:25 9,3 C 10,0 C 8,9 C 8,9 C 7,7 C 0,0 C 75 % 79 % 0 % 974,8 hPa 0,0 l/m 10,1 km/h (2 Bft) S-SO 157 0 min 0,0 UV-I 5,1 C 5,9 C 10,0 km/h (2 Bft)
16.12.2011 18:30 9,1 C 10,1 C 8,7 C 8,6 C 6,8 C 0,0 C 78 % 81 % 0 % 974,8 hPa 0,0 l/m 11,9 km/h (2 Bft) W-SW 247 0 min 0,0 UV-I 5,5 C 4,5 C 11,6 km/h (2 Bft)
16.12.2011 18:35 8,7 C 10,2 C 8,0 C 8,1 C 5,5 C 0,0 C 80 % 85 % 0 % 974,8 hPa 0,0 l/m 14,5 km/h (3 Bft) W 270 0 min 0,0 UV-I 5,4 C 2,4 C 14,3 km/h (3 Bft)
16.12.2011 18:40 8,4 C 10,2 C 7,6 C 7,6 C 5,1 C 0,0 C 79 % 86 % 0 % 975,2 hPa 0,0 l/m 14,0 km/h (3 Bft) SW 225 0 min 0,0 UV-I 5,0 C 2,0 C 30,3 km/h (5 Bft)
16.12.2011 18:45 8,0 C 10,2 C 7,2 C 7,1 C 4,0 C 0,0 C 80 % 87 % 0 % 975,2 hPa 0,7 l/m 17,4 km/h (3 Bft) W-SW 247 0 min 0,0 UV-I 4,8 C 0,2 C 33,5 km/h (5 Bft)
16.12.2011 18:50 8,0 C 10,2 C 7,1 C 6,9 C 3,4 C 0,0 C 80 % 88 % 0 % 975,2 hPa 0,0 l/m 22,0 km/h (4 Bft) NW 315 0 min 0,0 UV-I 4,8 C -1,2 C 24,3 km/h (4 Bft)
16.12.2011 18:55 8,0 C 10,2 C 7,1 C 6,9 C 3,6 C 0,0 C 79 % 88 % 0 % 975,2 hPa 0,0 l/m 24,5 km/h (4 Bft) W-SW 247 0 min 0,0 UV-I 4,6 C -1,2 C 27,4 km/h (4 Bft)
16.12.2011 19:00 8,0 C 10,1 C 7,1 C 7,0 C 3,8 C 0,0 C 78 % 87 % 0 % 976,1 hPa 0,0 l/m 23,5 km/h (4 Bft) W-SW 247 0 min 0,0 UV-I 4,4 C -0,9 C 43,3 km/h (6 Bft)
16.12.2011 19:15 7,6 C 10,2 C 7,0 C 6,7 C 3,4 C 0,0 C 77 % 85 % 0 % 976,1 hPa 0,0 l/m 24,6 km/h (4 Bft) W-SW 247 0 min 0,0 UV-I 3,8 C -1,5 C 56,0 km/h (7 Bft)
16.12.2011 19:17 7,6 C 10,2 C 7,0 C 6,2 C 3,4 C 0,0 C 77 % 85 % 0 % 976,1 hPa 0,0 l/m 24,6 km/h (4 Bft) W-SW 247 0 min 0,0 UV-I 3,8 C -1,5 C 28,3 km/h (4 Bft)
16.12.2011 19:20 7,6 C 10,2 C 7,1 C 6,7 C 3,6 C 0,0 C 76 % 84 % 0 % 977,0 hPa 0,0 l/m 25,6 km/h (4 Bft) S 180 0 min 0,0 UV-I 3,6 C -1,3 C 32,0 km/h (5 Bft)
16.12.2011 19:25 7,5 C 10,2 C 6,8 C 6,6 C 3,4 C 0,0 C 74 % 82 % 0 % 977,0 hPa 0,0 l/m 24,6 km/h (4 Bft) W-SW 247 0 min 0,0 UV-I 3,2 C -1,5 C 36,9 km/h (5 Bft)
16.12.2011 19:30 7,0 C 10,2 C 6,3 C 6,1 C 2,9 C 0,0 C 73 % 81 % 0 % 977,0 hPa 0,0 l/m 25,3 km/h (4 Bft) W-SW 247 0 min 0,0 UV-I 2,5 C -2,2 C 41,5 km/h (6 Bft)
16.12.2011 19:35 6,4 C 10,2 C 5,5 C 5,3 C 0,9 C 0,0 C 75 % 84 % 0 % 977,0 hPa 0,0 l/m 29,5 km/h (5 Bft) SW 225 0 min 0,0 UV-I 2,3 C -5,2 C 29,6 km/h (5 Bft)
16.12.2011 19:40 6,1 C 10,2 C 5,2 C 4,8 C 0,3 C 0,0 C 74 % 84 % 0 % 978,3 hPa 0,0 l/m 30,9 km/h (5 Bft) W-SW 247 0 min 0,0 UV-I 1,8 C -6,2 C 23,3 km/h (4 Bft)
16.12.2011 19:45 5,7 C 10,2 C 4,9 C 4,4 C 0,4 C 0,0 C 72 % 82 % 0 % 978,3 hPa 0,0 l/m 28,2 km/h (4 Bft) SW 225 0 min 0,0 UV-I 1,1 C -5,8 C 30,4 km/h (5 Bft)
16.12.2011 19:50 5,6 C 10,2 C 5,0 C 4,4 C 0,6 C 0,0 C 70 % 80 % 0 % 978,3 hPa 0,0 l/m 28,0 km/h (4 Bft) S-SW 202 0 min 0,0 UV-I 0,6 C -5,5 C 26,2 km/h (4 Bft)
16.12.2011 19:55 5,5 C 10,1 C 4,9 C 3,9 C 0,6 C 0,0 C 69 % 79 % 0 % 978,3 hPa 0,0 l/m 27,8 km/h (4 Bft) S 180 0 min 0,0 UV-I 0,3 C -5,5 C 25,7 km/h (4 Bft)
16.12.2011 20:00 5,5 C 10,1 C 4,8 C 4,4 C 0,7 C 0,0 C 68 % 79 % 0 % 979,1 hPa 0,0 l/m 26,7 km/h (4 Bft) S-SW 202 0 min 0,0 UV-I 0,1 C -5,2 C 42,2 km/h (6 Bft)
16.12.2011 20:04 5,2 C 10,1 C 4,7 C 4,1 C 0,9 C 0,0 C 69 % 79 % 0 % 979,1 hPa 0,0 l/m 24,0 km/h (4 Bft) W-SW 247 0 min 0,0 UV-I -0,0 C -4,6 C 25,7 km/h (4 Bft)
16.12.2011 20:09 5,2 C 10,1 C 4,7 C 4,2 C 0,8 C 0,0 C 68 % 78 % 0 % 979,1 hPa 0,0 l/m 25,7 km/h (4 Bft) W-SW 247 0 min 0,0 UV-I -0,2 C -5,0 C 19,8 km/h (3 Bft)
16.12.2011 20:14 5,1 C 10,1 C 4,7 C 3,7 C 0,8 C 0,0 C 69 % 79 % 0 % 979,1 hPa 0,0 l/m 24,6 km/h (4 Bft) SW 225 0 min 0,0 UV-I -0,1 C -4,8 C 26,9 km/h (4 Bft)
16.12.2011 20:19 5,1 C 10,1 C 4,7 C 3,7 C 0,8 C 0,0 C 69 % 79 % 0 % 979,1 hPa 0,0 l/m 24,6 km/h (4 Bft) SW 225 0 min 0,0 UV-I -0,1 C -4,8 C 26,9 km/h (4 Bft)
16.12.2011 20:25 4,8 C 10,2 C 4,5 C 3,8 C 0,0 C 0,0 C 71 % 78 % 0 % 979,8 hPa 0,0 l/m 26,7 km/h (4 Bft) SW 225 0 min 0,0 UV-I -0,0 C -6,1 C 43,0 km/h (6 Bft)
16.12.2011 20:30 4,7 C 10,2 C 4,4 C 3,6 C -0,6 C 0,0 C 73 % 80 % 0 % 979,8 hPa 0,0 l/m 28,0 km/h (4 Bft) W-SW 247 0 min 0,0 UV-I 0,3 C -7,0 C 37,3 km/h (5 Bft)
16.12.2011 20:35 4,3 C 10,2 C 4,1 C 3,0 C -1,6 C 0,0 C 76 % 82 % 0 % 979,8 hPa 0,0 l/m 30,3 km/h (5 Bft) S-SW 202 0 min 0,0 UV-I 0,5 C -8,6 C 38,8 km/h (5 Bft)
16.12.2011 20:40 4,1 C 10,2 C 3,9 C 2,7 C -2,1 C 0,0 C 77 % 83 % 0 % 980,4 hPa 0,0 l/m 30,1 km/h (5 Bft) SW 225 0 min 0,0 UV-I 0,4 C -9,2 C 46,5 km/h (6 Bft)
16.12.2011 20:45 4,0 C 10,2 C 3,6 C 2,5 C -2,4 C 0,0 C 78 % 84 % 0 % 980,4 hPa 0,0 l/m 29,9 km/h (5 Bft) SW 225 0 min 0,0 UV-I 0,5 C -9,6 C 24,0 km/h (4 Bft)
16.12.2011 20:50 4,0 C 10,2 C 3,6 C 2,5 C -2,3 C 0,0 C 78 % 83 % 0 % 980,4 hPa 0,0 l/m 27,5 km/h (4 Bft) W-SW 247 0 min 0,0 UV-I 0,5 C -9,2 C 19,8 km/h (3 Bft)
16.12.2011 20:55 4,0 C 10,1 C 3,8 C 2,7 C -1,3 C 0,0 C 77 % 82 % 0 % 980,4 hPa 0,0 l/m 23,7 km/h (4 Bft) W-SW 247 0 min 0,0 UV-I 0,3 C -7,4 C 24,8 km/h (4 Bft)
16.12.2011 21:00 4,1 C 10,1 C 4,0 C 2,9 C -1,1 C 0,0 C 76 % 81 % 0 % 980,9 hPa 0,0 l/m 25,1 km/h (4 Bft) SW 225 0 min 0,0 UV-I 0,3 C -7,3 C 43,6 km/h (6 Bft)
16.12.2011 21:04 4,3 C 10,1 C 4,0 C 3,2 C -1,0 C 0,0 C 75 % 80 % 0 % 980,9 hPa 0,0 l/m 27,5 km/h (4 Bft) SW 225 0 min 0,0 UV-I 0,3 C -7,5 C 40,7 km/h (6 Bft)
16.12.2011 21:09 4,3 C 10,1 C 4,1 C 3,1 C -0,9 C 0,0 C 73 % 78 % 0 % 980,9 hPa 0,0 l/m 28,6 km/h (4 Bft) W-SW 247 0 min 0,0 UV-I -0,1 C -7,5 C 41,4 km/h (6 Bft)
16.12.2011 21:14 4,5 C 10,1 C 4,3 C 3,3 C -0,5 C 0,0 C 73 % 78 % 0 % 980,9 hPa 0,0 l/m 27,2 km/h (4 Bft) W-SW 247 0 min 0,0 UV-I 0,1 C -6,8 C 29,0 km/h (5 Bft)
16.12.2011 21:18 4,5 C 10,1 C 4,3 C 2,8 C -0,5 C 0,0 C 73 % 78 % 0 % 980,9 hPa 0,0 l/m 27,2 km/h (4 Bft) W-SW 247 0 min 0,0 UV-I 0,1 C -6,8 C 29,0 km/h (5 Bft)
16.12.2011 21:25 4,5 C 10,1 C 4,3 C 3,5 C -0,1 C 0,0 C 72 % 76 % 0 % 981,5 hPa 0,0 l/m 28,2 km/h (4 Bft) W-SW 247 0 min 0,0 UV-I -0,1 C -6,4 C 29,8 km/h (5 Bft)
16.12.2011 21:30 4,5 C 10,1 C 4,3 C 3,0 C -0,1 C 0,0 C 72 % 76 % 0 % 981,5 hPa 0,0 l/m 28,3 km/h (4 Bft) W-SW 247 0 min 0,0 UV-I -0,1 C -6,4 C 23,8 km/h (4 Bft)
16.12.2011 21:35 4,7 C 10,1 C 4,4 C 3,7 C 0,2 C 0,0 C 71 % 76 % 0 % 981,5 hPa 0,0 l/m 27,4 km/h (4 Bft) SW 225 0 min 0,0 UV-I -0,1 C -5,9 C 33,0 km/h (5 Bft)
16.12.2011 21:40 4,7 C 10,1 C 4,5 C 3,7 C 0,0 C 0,0 C 71 % 75 % 0 % 982,3 hPa 0,0 l/m 29,5 km/h (5 Bft) W-SW 247 0 min 0,0 UV-I -0,1 C -6,4 C 56,6 km/h (7 Bft)
16.12.2011 21:45 4,7 C 10,1 C 4,4 C 3,7 C 0,1 C 0,0 C 71 % 75 % 0 % 982,3 hPa 0,0 l/m 27,7 km/h (4 Bft) SW 225 0 min 0,0 UV-I -0,1 C -6,1 C 31,7 km/h (5 Bft)
16.12.2011 21:50 4,6 C 10,0 C 4,4 C 3,6 C 0,2 C 0,0 C 71 % 76 % 0 % 982,3 hPa 0,0 l/m 25,7 km/h (4 Bft) W-SW 247 0 min 0,0 UV-I -0,2 C -5,7 C 30,3 km/h (5 Bft)
16.12.2011 21:55 4,7 C 10,0 C 4,4 C 3,2 C 0,2 C 0,0 C 70 % 75 % 0 % 982,3 hPa 0,0 l/m 25,6 km/h (4 Bft) W-SW 247 0 min 0,0 UV-I -0,3 C -5,7 C 32,2 km/h (5 Bft)
16.12.2011 22:00 4,6 C 10,0 C 4,4 C 3,6 C 0,1 C 0,0 C 70 % 74 % 0 % 982,9 hPa 0,0 l/m 28,5 km/h (4 Bft) W-SW 247 0 min 0,0 UV-I -0,4 C -6,2 C 31,7 km/h (5 Bft)
16.12.2011 22:04 4,6 C 10,0 C 4,5 C 3,6 C 0,1 C 0,0 C 70 % 74 % 0 % 982,9 hPa 0,0 l/m 28,8 km/h (4 Bft) SW 225 0 min 0,0 UV-I -0,4 C -6,2 C 21,2 km/h (4 Bft)
16.12.2011 22:09 4,7 C 10,0 C 4,4 C 3,7 C 0,2 C 0,0 C 70 % 74 % 0 % 982,9 hPa 0,0 l/m 27,2 km/h (4 Bft) S 180 0 min 0,0 UV-I -0,3 C -5,9 C 44,1 km/h (6 Bft)
16.12.2011 22:14 4,7 C 10,0 C 4,4 C 3,7 C 0,0 C 0,0 C 70 % 75 % 0 % 982,9 hPa 0,0 l/m 27,4 km/h (4 Bft) W-SW 247 0 min 0,0 UV-I -0,3 C -6,2 C 30,7 km/h (5 Bft)
16.12.2011 22:18 4,7 C 10,0 C 4,4 C 3,1 C 0,0 C 0,0 C 70 % 75 % 0 % 982,9 hPa 0,0 l/m 27,4 km/h (4 Bft) W-SW 247 0 min 0,0 UV-I -0,3 C -6,2 C 30,7 km/h (5 Bft)
16.12.2011 22:25 4,5 C 10,0 C 4,4 C 3,5 C -0,2 C 0,0 C 72 % 76 % 0 % 983,6 hPa 0,0 l/m 28,5 km/h (4 Bft) W-SW 247 0 min 0,0 UV-I -0,1 C -6,6 C 25,9 km/h (4 Bft)
16.12.2011 22:30 4,4 C 10,0 C 4,3 C 3,4 C -0,5 C 0,0 C 72 % 76 % 0 % 983,6 hPa 0,0 l/m 29,3 km/h (5 Bft) W 270 0 min 0,0 UV-I -0,2 C -7,1 C 39,1 km/h (6 Bft)
16.12.2011 22:35 4,4 C 10,0 C 4,3 C 3,3 C -0,7 C 0,0 C 72 % 75 % 0 % 983,6 hPa 0,0 l/m 29,9 km/h (5 Bft) W-SW 247 0 min 0,0 UV-I -0,2 C -7,4 C 41,0 km/h (6 Bft)
16.12.2011 22:40 4,5 C 10,0 C 4,4 C 2,8 C -0,7 C 0,0 C 71 % 75 % 0 % 983,7 hPa 0,0 l/m 30,3 km/h (5 Bft) W-SW 247 0 min 0,1 UV-I -0,3 C -7,4 C 34,9 km/h (5 Bft)
16.12.2011 22:45 4,4 C 9,9 C 4,3 C 3,3 C -0,5 C 0,0 C 72 % 76 % 0 % 983,7 hPa 0,0 l/m 27,4 km/h (4 Bft) W-SW 247 0 min 0,0 UV-I -0,2 C -6,8 C 58,1 km/h (7 Bft)
16.12.2011 22:50 4,5 C 9,9 C 4,3 C 3,4 C -0,4 C 0,0 C 73 % 76 % 0 % 983,7 hPa 0,0 l/m 26,6 km/h (4 Bft) W-SW 247 0 min 0,2 UV-I 0,1 C -6,6 C 28,8 km/h (4 Bft)
16.12.2011 22:55 4,4 C 9,9 C 4,3 C 3,3 C -0,6 C 0,0 C 73 % 76 % 0 % 983,7 hPa 0,0 l/m 29,5 km/h (5 Bft) W-SW 247 0 min 0,0 UV-I -0,0 C -7,2 C 35,7 km/h (5 Bft)
16.12.2011 23:00 4,5 C 9,9 C 4,3 C 3,3 C -0,9 C 0,0 C 73 % 77 % 0 % 984,4 hPa 0,0 l/m 30,1 km/h (5 Bft) SW 225 0 min 0,1 UV-I 0,1 C -7,7 C 63,2 km/h (8 Bft)
16.12.2011 23:04 4,3 C 9,9 C 4,1 C 3,2 C -1,1 C 0,0 C 74 % 78 % 0 % 984,4 hPa 0,0 l/m 26,7 km/h (4 Bft) W-SW 247 0 min 0,0 UV-I 0,1 C -7,5 C 34,9 km/h (5 Bft)
16.12.2011 23:09 4,3 C 9,9 C 4,1 C 3,1 C -0,9 C 0,0 C 75 % 78 % 0 % 984,4 hPa 0,0 l/m 25,3 km/h (4 Bft) W-SW 247 0 min 0,0 UV-I 0,3 C -7,1 C 18,5 km/h (3 Bft)
16.12.2011 23:14 4,2 C 9,9 C 4,1 C 3,0 C -0,8 C 0,0 C 74 % 78 % 0 % 984,4 hPa 0,0 l/m 22,4 km/h (4 Bft) W 270 0 min 0,4 UV-I -0,0 C -6,6 C 24,6 km/h (4 Bft)
16.12.2011 23:18 4,2 C 9,9 C 4,1 C 2,5 C -0,8 C 0,0 C 74 % 78 % 0 % 984,4 hPa 0,0 l/m 22,4 km/h (4 Bft) W 270 0 min 0,4 UV-I -0,0 C -6,6 C 24,6 km/h (4 Bft)
16.12.2011 23:20 4,3 C 9,9 C 4,1 C 3,2 C -0,4 C 0,0 C 75 % 78 % 0 % 984,6 hPa 0,0 l/m 20,9 km/h (4 Bft) SW 225 0 min 2,2 UV-I 0,3 C -5,9 C 20,3 km/h (4 Bft)
16.12.2011 23:25 4,2 C 9,9 C 4,1 C 2,7 C -0,4 C 0,0 C 74 % 78 % 0 % 984,6 hPa 0,0 l/m 22,9 km/h (4 Bft) S 180 0 min 2,6 UV-I -0,0 C -6,2 C 32,7 km/h (5 Bft)
16.12.2011 23:30 4,3 C 9,9 C 4,1 C 2,7 C -0,4 C 0,0 C 74 % 78 % 0 % 984,6 hPa 0,0 l/m 24,3 km/h (4 Bft) W-SW 247 0 min 2,7 UV-I 0,1 C -6,3 C 37,3 km/h (5 Bft)
16.12.2011 23:35 4,3 C 9,9 C 4,2 C 3,2 C -0,6 C 0,0 C 75 % 78 % 0 % 984,6 hPa 0,0 l/m 26,4 km/h (4 Bft) S 180 0 min 2,5 UV-I 0,3 C -6,9 C 20,0 km/h (4 Bft)
16.12.2011 23:40 4,3 C 9,8 C 4,2 C 3,2 C -0,4 C 0,0 C 75 % 78 % 0 % 985,0 hPa 0,0 l/m 25,1 km/h (4 Bft) W-SW 247 0 min 1,8 UV-I 0,3 C -6,4 C 26,6 km/h (4 Bft)
16.12.2011 23:45 4,3 C 9,8 C 4,2 C 2,7 C -0,4 C 0,0 C 75 % 78 % 0 % 985,0 hPa 0,0 l/m 25,3 km/h (4 Bft) W-SW 247 0 min 0,0 UV-I 0,3 C -6,5 C 33,0 km/h (5 Bft)
16.12.2011 23:50 4,3 C 9,8 C 4,2 C 3,2 C -0,6 C 0,0 C 75 % 79 % 0 % 985,0 hPa 0,0 l/m 26,4 km/h (4 Bft) W-SW 247 0 min 0,0 UV-I 0,3 C -6,9 C 33,0 km/h (5 Bft)
16.12.2011 23:55 4,3 C 9,8 C 4,2 C 2,7 C -0,6 C 0,0 C 75 % 79 % 0 % 985,0 hPa 0,0 l/m 26,4 km/h (4 Bft) W-SW 247 0 min 0,0 UV-I 0,3 C -6,9 C 53,9 km/h (7 Bft)
_ Min-Zeit 11:20 06:10 11:20 11:20 20:45 00:00 20:00 22:00 00:00 17:25 - 05:30 - - - 00:00 22:00 20:45 04:25
Minimum _ 3,3 C 9,5 C 2,8 C 2,3 C -2,4 C 0,0 C 68 % 74 % 0 % 973,4 hPa - 0,3 km/h (0 Bft) - - - 0,0 UV-I -0,4 C -9,6 C 0,0 km/h (0 Bft)
_ Max-Zeit 17:30 18:35 17:30 17:35 17:35 08:45 11:59 12:15 08:45 00:00 11:44 19:40 - - 00:00 23:30 16:50 17:35 23:00
Maximum _ 9,5 C 10,2 C 9,1 C 9,2 C 8,1 C 0,2 C 88 % 94 % 5 % 1008,6 hPa 1,4 l/m 30,9 km/h
W-SW (5 Bft)
- - 0 min 2,7 UV-I 6,2 C 6,5 C 63,2 km/h
SW (8 Bft)
Durchschnitt _ 5,5 C 9,8 C 5,1 C 4,8 C 3,2 C 0,0 C 78 % 83 % 0 % 988,0 hPa #8,2 l/m 10,8 km/h (2 Bft) W-SW - #0 min. 1,3 UV-I 1,9 C 1,0 C 14,4 km/h (3 Bft)
2011 www.wetterstation-wechselburg.de